IGO537 VOBL-VOHS

Flight info

Callsign IGO537
Flight time N/A
Altitude 33000
Route LATID8A LATID Q22 SAKRO SARKA6
Aircraft A320/M-SDE3FGHIRWY/LB1

Departure

Time 2026-04-28 09:18
Airport Kempegowda International Airport Bengaluru (VOBL)

Arrival

Time N/A
Airport Rajiv Gandhi International Airport (VOHS)
Time Latitude Longitude Altitude Speed Heading
2026-04-28 08:49 13.20166 77.70875 3008 ft 0 kts 180°
2026-04-28 08:49 13.20165 77.70875 3009 ft 0 kts 180°
2026-04-28 08:58 13.20166 77.70875 3009 ft 0 kts 180°
2026-04-28 09:08 13.20170 77.70875 3009 ft 2 kts 180°
2026-04-28 09:08 13.20186 77.70875 3009 ft 2 kts 180°
2026-04-28 09:09 13.20201 77.70875 3009 ft 2 kts 180°
2026-04-28 09:09 13.20216 77.70875 3009 ft 2 kts 159°
2026-04-28 09:09 13.20229 77.70867 3009 ft 2 kts 137°
2026-04-28 09:09 13.20238 77.70854 3009 ft 2 kts 113°
2026-04-28 09:10 13.20242 77.70840 3009 ft 2 kts 89°
2026-04-28 09:10 13.20241 77.70824 3009 ft 2 kts 91°
2026-04-28 09:10 13.20241 77.70813 3009 ft 0 kts 90°
2026-04-28 09:10 13.20241 77.70812 3009 ft 0 kts 90°
2026-04-28 09:13 13.20241 77.70829 3009 ft 4 kts 90°
2026-04-28 09:13 13.20241 77.70879 3009 ft 9 kts 90°
2026-04-28 09:13 13.20241 77.70962 3009 ft 13 kts 90°
2026-04-28 09:13 13.20240 77.71069 3009 ft 16 kts 90°
2026-04-28 09:14 13.20244 77.71146 3009 ft 7 kts 71°
2026-04-28 09:14 13.20295 77.71177 3009 ft 11 kts
2026-04-28 09:14 13.20386 77.71176 3009 ft 14 kts
2026-04-28 09:14 13.20484 77.71177 3008 ft 12 kts
2026-04-28 09:15 13.20522 77.71263 3009 ft 16 kts 91°
2026-04-28 09:15 13.20520 77.71405 3008 ft 21 kts 90°
2026-04-28 09:15 13.20519 77.71570 3009 ft 24 kts 90°
2026-04-28 09:15 13.20518 77.71753 3009 ft 26 kts 90°
2026-04-28 09:16 13.20517 77.71943 3009 ft 24 kts 90°
2026-04-28 09:16 13.20516 77.72107 3009 ft 21 kts 90°
2026-04-28 09:16 13.20515 77.72223 3009 ft 10 kts 86°
2026-04-28 09:16 13.20552 77.72279 3009 ft 9 kts 23°
2026-04-28 09:17 13.20610 77.72283 3009 ft 7 kts 359°
2026-04-28 09:17 13.20658 77.72282 3009 ft 6 kts 347°
2026-04-28 09:17 13.20684 77.72254 3009 ft 5 kts 286°
2026-04-28 09:17 13.20686 77.72179 3009 ft 21 kts 269°
2026-04-28 09:18 13.20690 77.71804 3009 ft 85 kts 271°
2026-04-28 09:18 13.20696 77.70977 3009 ft 145 kts 270°
2026-04-28 09:18 13.20711 77.69741 3086 ft 189 kts 272°
2026-04-28 09:18 13.20745 77.68353 3718 ft 193 kts 277°
2026-04-28 09:19 13.21186 77.67123 4603 ft 182 kts 308°
2026-04-28 09:19 13.21998 77.66157 5077 ft 181 kts 311°
2026-04-28 09:19 13.22771 77.65077 5311 ft 191 kts 304°
2026-04-28 09:19 13.23513 77.63882 5548 ft 203 kts 302°
2026-04-28 09:20 13.24266 77.62595 5787 ft 215 kts 302°
2026-04-28 09:20 13.25047 77.61225 6030 ft 227 kts 301°
2026-04-28 09:20 13.25863 77.59773 6267 ft 240 kts 301°
2026-04-28 09:20 13.26746 77.58198 6430 ft 260 kts 301°
2026-04-28 09:21 13.27283 77.57239 6599 ft 269 kts 301°